Temperature
20 20 20 20 20 20 19 19 18 18 18 18 17 17 17 17 17 17 17 16 16 16 16 16 16 16 16 16 16 16 16 16 16 17 16 16 16 16 16 16 16 16 16
20 20 20 20 19 19 19 19 18 18 18 18 18 17 17 17 17 17 17 16 16 16 16 16 16 16 16 16 16 16 16 16 16 16 16 16 15 15 15 15 15 15 15
19 19 19 19 19 19 19 18 18 18 18 18 18 17 17 17 17 16 16 16 16 16 16 16 15 15 15 15 15 15 15 16 15 15 16 15 15 15 15 15 15 15 15
19 19 19 19 19 19 18 18 18 18 18 17 17 17 17 17 16 16 16 16 16 15 15 15 15 15 15 15 15 15 15 15 15 15 15 15 15 15 15 15 15 15 15
19 19 19 19 19 18 18 18 18 18 17 17 17 17 17 16 16 16 16 16 15 15 15 15 15 15 15 15 15 15 15 15 15 15 15 15 15 14 14 14 15 15 14
19 19 19 19 19 18 18 18 18 18 17 17 17 17 16 16 16 16 16 15 15 15 15 15 15 15 15 15 15 15 15 14 14 14 15 14 14 14 14 14 14 14 14
19 18 18 18 18 18 18 18 18 17 17 17 17 16 16 16 16 16 16 15 15 15 15 15 15 15 15 14 15 15 14 14 14 14 14 14 14 14 13 14 13 14 14
18 18 18 18 18 17 17 17 17 17 17 16 16 16 16 16 16 16 16 15 15 14 14 14 14 14 14 14 14 14 14 14 14 14 13 13 13 13 13 13 13 13 13
18 18 18 18 17 17 17 17 16 16 16 16 15 15 15 15 15 16 15 15 14 14 14 14 14 14 14 14 14 13 13 13 14 14 13 13 13 13 13 13 13 13 13
17 17 17 17 17 16 16 16 16 16 16 15 15 15 15 15 15 15 15 14 14 14 14 14 14 14 14 14 13 13 13 13 13 13 13 13 13 13 13 12 12 12 13
17 17 17 16 16 16 16 16 16 15 15 15 14 14 14 14 14 14 14 14 14 13 13 13 13 13 13 13 13 13 13 13 12 12 12 12 12 12 12 12 12 12 12
16 16 16 16 16 15 15 15 15 15 14 14 14 14 14 14 14 14 14 14 13 13 13 13 13 13 13 13 13 13 13 12 12 12 12 12 11 11 12 11 11 12 12
15 15 15 15 15 15 15 15 14 14 14 14 14 14 14 13 13 13 13 13 13 12 12 12 13 13 12 12 12 12 12 11 11 11 11 11 11 11 11 11 11 11 11
15 15 15 15 14 14 14 14 14 14 14 14 14 13 13 13 13 13 13 12 12 12 12 12 12 12 12 11 11 11 11 11 11 11 11 11 11 11 11 10 10 10 11
14 14 14 14 14 13 13 13 13 13 13 13 13 13 13 12 12 12 12 12 12 12 11 11 11 11 11 11 10 10 10 10 10 10 10 10 10 10 10 10 10 10 10
14 14 14 14 13 13 13 13 13 13 13 13 13 12 12 12 12 12 12 12 12 11 11 11 11 11 10 10 10 10 10 10 10 10 10 10 10 10 10 10 10 10 10
13 13 13 13 13 13 13 13 12 12 12 12 12 12 12 12 12 12 12 11 11 11 11 10 10 10 10 10 10 10 10 10 10 10 10 9 10 10 10 10 10 10 10
13 13 13 13 13 13 13 12 12 12 12 12 12 12 12 12 11 11 11 11 10 10 10 10 10 10 10 10 10 10 10 9 9 9 9 9 9 9 9 9 9 9 9
13 12 12 13 13 12 12 12 12 12 12 12 11 11 11 11 11 11 10 10 10 10 10 10 9 9 9 9 9 9 9 9 9 9 9 9 9 9 9 9 9 9 9
12 12 12 12 12 12 12 12 12 11 11 11 11 11 11 10 10 10 10 10 10 10 9 9 9 9 9 9 9 9 9 9 8 8 8 8 8 8 8 8 8 8 8
12 12 12 12 12 12 11 11 11 11 11 11 11 10 10 10 10 10 10 10 9 9 9 9 9 8 8 8 8 8 8 8 8 8 8 8 8 8 8 8 8 8 8
12 11 11 11 11 11 11 11 11 11 11 10 10 10 10 10 10 9 9 9 9 9 9 9 9 8 8 8 8 8 8 8 8 8 8 8 8 8 8 7 7 7 7
12 12 11 11 11 11 10 11 11 11 10 10 10 10 10 10 9 9 9 9 9 8 8 8 8 8 7 7 7 7 7 7 7 7 7 7 7 7 7 7 7 7 7
11 11 11 11 11 11 11 10 10 10 10 10 10 10 10 9 9 9 9 9 8 8 8 8 7 7 7 7 7 7 7 7 7 7 7 7 7 6 6 6 6 6 6
11 11 11 11 11 11 11 10 10 10 10 10 10 10 9 9 9 9 9 8 8 8 8 7 7 7 7 7 7 7 7 7 7 7 6 6 6 6 6 6 6 6 6
11 11 11 11 10 10 10 10 10 10 10 10 9 9 9 9 9 9 8 8 8 8 8 7 7 7 7 7 7 7 7 7 7 6 6 6 5 5 5 5 5 5 5
Wind_Speed
13 12 11 11 10 10 9 8 8 7 7 6 6 6 5 5 5 4 4 4 5 5 5 5 5 5 5 4 4 5 5 5 6 5 4 2 3 5 3 5 6 6 6
12 12 11 10 10 10 9 9 8 8 8 7 7 6 6 5 5 5 5 5 5 5 5 5 5 5 5 5 5 5 5 5 6 6 5 4 4 4 4 5 5 5 5
12 12 11 11 11 10 9 9 9 8 8 7 7 7 6 6 6 5 5 5 5 6 5 6 6 6 6 5 6 6 5 5 5 6 6 4 4 4 4 5 5 5 6
11 12 12 12 11 11 10 9 9 9 8 8 7 7 7 7 7 6 6 6 6 6 6 6 6 7 7 6 6 6 6 6 6 6 6 5 4 4 4 4 4 4 5
11 11 11 11 10 10 9 9 9 9 9 8 8 8 8 7 7 6 6 7 6 6 6 6 6 5 5 5 6 5 6 6 6 6 6 6 5 4 4 5 5 4 4
10 11 10 10 10 10 9 9 9 9 9 9 9 8 9 7 4 5 7 7 7 7 6 6 5 5 4 4 4 5 6 7 7 6 6 6 6 5 4 5 5 5 4
10 10 10 10 10 10 9 9 9 9 9 9 9 9 9 7 5 5 6 7 7 7 6 6 5 4 4 4 4 6 5 6 7 7 7 7 7 6 6 7 6 6 5
9 9 9 9 9 9 9 8 8 7 7 7 8 8 8 7 6 6 7 8 7 6 6 5 5 4 4 4 4 4 5 5 6 6 6 7 6 5 6 7 6 6 6
8 8 8 8 8 8 8 8 7 6 6 7 7 7 7 6 6 7 7 6 6 6 6 5 5 4 1 2 4 4 5 5 3 3 3 4 3 4 5 5 6 6 5
6 7 7 7 7 7 7 6 6 6 6 6 5 6 6 6 5 6 6 6 5 5 4 3 2 2 0 1 4 4 5 5 4 3 4 5 5 5 6 6 6 6 6
4 5 6 6 6 6 6 5 6 5 5 5 5 4 4 4 4 5 5 5 5 4 3 2 1 3 2 1 3 3 4 4 4 4 4 4 4 4 4 4 5 6 6
3 5 5 5 5 5 5 5 5 5 5 5 4 3 3 2 2 3 5 5 4 4 3 2 1 4 2 2 2 1 3 4 4 3 3 3 3 3 3 4 4 5 6
3 4 4 5 4 4 5 5 5 5 4 4 4 3 3 2 2 4 4 4 2 3 1 3 2 3 2 2 2 3 4 3 3 3 3 3 3 3 3 3 4 4 6
3 3 4 5 5 5 4 4 4 4 4 4 4 3 3 3 2 2 2 3 4 3 2 3 5 4 3 1 1 2 3 2 3 3 4 3 3 3 4 4 4 4 4
3 3 4 4 4 5 4 3 4 2 2 3 3 3 3 3 1 2 1 2 1 2 2 2 2 1 1 1 1 2 2 2 2 3 3 3 3 4 4 3 3 4 5
4 3 3 3 4 5 5 4 4 3 4 3 1 1 2 3 5 4 3 3 3 1 2 2 1 1 1 1 2 2 2 2 3 3 3 3 4 3 3 4 4 4 5
4 3 3 4 4 4 5 5 4 3 5 5 4 3 3 4 5 5 4 3 2 3 2 1 1 1 2 2 2 2 2 2 3 3 4 4 4 4 4 4 4 4 4
4 4 4 4 4 4 5 5 4 4 3 2 4 5 6 6 6 6 5 4 3 3 3 2 2 2 2 2 2 3 3 3 3 3 4 4 4 4 4 4 5 5 5
3 3 3 3 3 4 4 4 4 4 3 3 4 5 6 7 7 6 6 3 3 3 3 2 2 2 2 2 2 3 3 3 3 4 4 4 4 4 4 4 5 5 5
3 3 3 3 4 4 4 4 4 4 4 4 3 3 4 4 3 4 4 3 3 2 2 1 1 2 2 3 3 3 3 3 3 4 4 4 5 5 5 5 5 5 5
3 4 5 4 4 4 4 4 4 4 3 3 2 2 1 3 3 3 3 3 2 2 1 1 1 2 2 3 3 4 4 4 4 4 4 5 5 5 5 5 5 5 5
3 4 4 3 3 4 3 3 3 3 3 3 2 3 4 4 3 3 3 3 2 2 2 2 2 2 3 3 4 4 4 4 4 5 5 5 5 5 5 5 5 4 4
3 3 3 3 3 4 3 3 3 3 3 3 3 2 3 3 2 2 2 2 2 2 2 2 2 2 2 3 3 3 4 4 4 5 5 5 5 5 5 5 5 5 5
3 3 4 4 4 4 3 3 3 3 2 2 2 2 3 2 2 2 2 2 2 2 2 2 3 3 4 3 3 3 3 4 6 5 6 6 6 5 5 5 5 5 4
3 3 3 3 3 4 3 3 3 3 2 2 2 2 2 3 3 3 3 2 3 3 3 3 3 3 4 4 3 3 3 4 5 6 6 5 5 5 4 4 4 4 4
4 3 3 3 3 3 3 3 3 3 3 3 3 2 2 2 2 2 2 2 2 2 3 3 3 3 4 3 2 2 2 3 4 6 7 5 4 4 4 4 5 4 5
Wind_Direction
195 196 198 196 198 201 203 206 207 207 205 213 217 220 221 221 221 223 236 234 239 244 248 250 255 262 260 253 249 249 251 256 258 263 263 254 250 268 256 245 244 235 218
192 193 195 194 195 198 201 206 207 209 210 210 213 216 220 219 222 225 235 237 239 244 250 257 260 258 258 260 257 256 256 251 251 261 264 257 246 254 256 255 253 243 244
189 191 193 196 195 198 200 202 207 210 212 213 212 216 221 223 225 229 233 238 240 244 248 252 256 259 261 260 257 257 256 250 244 252 256 260 254 253 254 253 256 264 259
190 191 193 197 197 197 198 200 203 208 212 215 217 219 224 227 228 231 234 237 241 247 252 258 261 259 259 258 254 255 258 255 248 250 252 252 250 252 255 256 254 247 260
191 193 195 195 195 197 199 202 203 207 211 212 217 221 226 228 229 229 236 237 239 245 249 255 260 267 287 275 266 260 258 255 252 251 253 252 251 252 253 256 259 256 248
195 196 195 193 194 197 198 199 203 206 212 211 216 222 229 234 207 222 242 243 243 246 252 255 253 241 239 243 257 272 277 263 264 263 259 260 259 252 261 264 264 258 255
196 196 195 195 197 200 201 200 204 208 211 213 217 221 227 226 204 214 238 245 246 250 251 253 259 258 248 251 231 225 245 253 254 262 263 266 264 261 262 260 260 260 262
197 196 193 195 199 202 205 206 208 209 211 216 220 221 225 221 196 205 225 237 248 250 249 246 249 253 259 261 254 249 248 247 245 247 254 263 270 273 263 262 261 254 253
196 196 196 195 199 201 204 206 207 209 213 218 223 226 229 224 196 202 222 237 242 246 245 242 243 247 310 292 252 252 255 253 234 227 258 266 288 280 273 261 256 255 260
193 192 192 193 194 199 202 201 202 206 214 221 225 230 230 229 201 199 220 235 240 245 239 231 210 218 226 266 240 248 255 263 262 249 232 231 237 232 231 247 261 262 265
186 181 185 187 187 195 194 198 200 203 206 214 216 220 226 225 192 186 218 232 236 241 235 231 193 124 133 228 255 257 269 276 263 259 246 240 237 239 238 242 261 271 273
173 177 184 188 192 188 184 192 197 196 197 200 196 207 207 201 180 184 206 230 255 231 231 230 149 123 145 214 245 279 273 264 256 253 257 259 258 258 260 258 256 267 276
166 171 177 184 188 189 190 188 194 199 203 194 196 201 198 186 156 158 181 199 226 224 204 86 112 155 176 201 200 229 236 250 258 261 264 269 277 282 276 260 250 252 256
160 170 172 174 179 179 187 191 200 201 200 199 200 199 183 167 162 165 177 177 173 180 154 141 164 189 206 170 210 234 254 270 274 276 277 278 280 276 272 273 264 262 263
165 174 177 173 171 170 172 177 192 188 193 201 200 194 185 186 144 90 168 188 200 136 145 190 186 177 191 210 244 264 267 267 273 279 280 283 280 281 279 278 277 272 270
173 181 184 177 171 173 167 154 87 98 96 95 75 189 147 104 115 104 83 74 79 127 217 208 221 256 261 265 277 277 278 282 281 279 277 276 276 279 283 282 282 282 284
180 185 186 179 174 176 175 173 157 119 97 95 104 111 123 121 124 127 124 122 152 187 202 210 231 254 271 274 280 289 292 291 290 288 285 280 275 275 276 278 281 285 286
180 178 184 180 178 175 176 176 171 162 152 138 125 133 141 141 144 150 157 159 172 190 215 226 239 252 269 286 293 300 300 297 293 295 294 289 284 280 277 279 279 285 285
177 173 171 168 172 175 176 174 172 168 166 160 150 141 146 152 158 168 178 196 201 207 218 228 252 270 282 290 300 303 302 300 305 300 301 298 290 283 283 284 286 284 280
155 131 154 166 169 170 176 177 175 175 177 176 178 172 163 172 171 169 185 202 212 215 225 236 266 299 302 302 299 297 298 299 300 296 305 306 299 291 288 286 286 285 282
154 146 156 169 169 169 170 174 176 177 179 181 182 158 210 207 196 193 196 206 216 216 216 246 268 281 283 286 294 296 294 295 297 297 300 300 298 296 291 285 285 287 291
166 162 162 161 161 163 167 174 178 177 178 182 175 160 182 215 202 199 203 213 225 231 235 250 263 277 291 291 290 291 293 296 302 304 302 299 298 298 294 288 286 289 287
171 160 152 148 148 147 177 181 180 184 187 187 188 187 193 209 211 209 209 214 225 238 243 250 263 274 281 279 283 288 292 303 310 312 309 303 300 300 300 293 287 285 283
181 176 168 167 169 179 182 182 185 186 192 197 202 204 205 206 215 214 219 220 231 238 244 253 262 269 277 285 292 297 322 325 312 301 299 296 293 294 293 291 289 290 289
182 181 185 192 189 189 183 181 186 194 204 210 208 209 211 215 220 219 221 224 227 236 246 254 261 261 265 270 291 319 359 339 314 307 292 285 289 291 293 295 299 299 297
180 176 186 195 195 195 193 193 198 203 209 213 205 202 213 223 230 238 237 236 239 234 243 254 260 263 266 264 286 322 332 305 296 296 288 280 282 287 296 293 298 295 294
Height
1516 1519 1522 1525 1527 1529 1531 1533 1535 1537 1538 1539 1540 1541 1541 1541 1541 1541 1541 1541 1541 1540 1540 1540 1539 1539 1539 1539 1539 1539 1538 1538 1538 1538 1538 1537 1536 1536 1535 1535 1534 1534 1533
1512 1515 1518 1521 1523 1526 1528 1530 1532 1533 1535 1536 1537 1537 1538 1538 1538 1538 1538 1538 1538 1538 1537 1537 1537 1536 1536 1535 1535 1535 1535 1535 1535 1534 1534 1534 1533 1533 1532 1531 1532 1531 1530
1509 1512 1515 1517 1520 1522 1524 1527 1529 1530 1531 1533 1533 1534 1535 1535 1535 1535 1535 1535 1535 1535 1534 1534 1533 1533 1532 1532 1531 1532 1532 1532 1531 1531 1531 1530 1530 1529 1529 1528 1528 1527 1527
1506 1508 1511 1513 1516 1519 1521 1523 1525 1527 1528 1529 1530 1530 1531 1532 1532 1532 1531 1531 1531 1531 1531 1531 1530 1529 1529 1528 1528 1528 1528 1528 1528 1528 1527 1527 1526 1526 1525 1525 1525 1524 1524
1502 1505 1507 1510 1513 1515 1517 1519 1520 1522 1524 1525 1526 1526 1527 1528 1528 1527 1527 1527 1527 1527 1527 1526 1526 1525 1524 1524 1524 1524 1524 1524 1524 1524 1524 1523 1523 1522 1522 1521 1521 1521 1520
1498 1501 1504 1506 1508 1510 1512 1514 1516 1517 1519 1520 1521 1522 1522 1524 1523 1523 1523 1523 1523 1523 1523 1522 1521 1520 1519 1519 1519 1519 1520 1520 1521 1521 1520 1520 1519 1518 1518 1518 1518 1518 1517
1494 1497 1500 1502 1504 1506 1508 1509 1511 1512 1514 1515 1515 1516 1517 1518 1518 1519 1519 1519 1519 1519 1519 1518 1518 1517 1516 1516 1515 1515 1515 1515 1516 1516 1516 1515 1515 1514 1514 1514 1513 1513 1512
1491 1493 1495 1498 1500 1502 1503 1505 1506 1508 1509 1510 1510 1511 1512 1513 1513 1514 1514 1515 1515 1515 1515 1514 1513 1513 1513 1512 1512 1512 1511 1511 1511 1511 1511 1510 1510 1510 1509 1510 1509 1509 1508
1487 1489 1491 1493 1495 1497 1499 1500 1502 1503 1504 1505 1506 1507 1508 1508 1509 1510 1510 1511 1511 1511 1511 1511 1510 1509 1509 1508 1508 1508 1507 1506 1507 1506 1506 1506 1505 1505 1505 1506 1506 1505 1505
1483 1485 1487 1489 1491 1492 1494 1496 1497 1498 1500 1501 1502 1503 1503 1504 1505 1505 1506 1507 1507 1507 1508 1507 1506 1506 1505 1505 1505 1504 1503 1503 1503 1503 1502 1501 1501 1501 1501 1501 1501 1502 1501
1480 1482 1484 1486 1487 1488 1490 1491 1492 1494 1495 1497 1498 1499 1499 1499 1500 1501 1501 1502 1503 1504 1504 1504 1503 1502 1502 1501 1501 1501 1500 1500 1499 1499 1499 1498 1498 1497 1497 1497 1497 1497 1497
1477 1478 1480 1482 1483 1485 1486 1488 1489 1490 1492 1493 1494 1495 1495 1495 1496 1496 1497 1498 1499 1500 1500 1501 1500 1499 1499 1499 1498 1498 1497 1497 1497 1497 1497 1496 1495 1494 1493 1493 1492 1492 1492
1474 1475 1477 1479 1480 1481 1482 1484 1486 1487 1488 1489 1490 1491 1492 1492 1492 1493 1494 1495 1495 1496 1497 1497 1497 1497 1496 1496 1496 1495 1494 1495 1495 1494 1494 1493 1492 1491 1490 1489 1488 1488 1488
1472 1473 1474 1476 1477 1478 1480 1482 1483 1484 1485 1486 1487 1488 1489 1489 1490 1491 1491 1492 1492 1493 1493 1493 1494 1494 1494 1494 1493 1493 1492 1492 1492 1491 1491 1490 1489 1488 1487 1486 1486 1485 1485
1470 1471 1472 1474 1475 1476 1477 1479 1480 1481 1482 1483 1484 1485 1486 1487 1487 1488 1489 1490 1490 1491 1491 1492 1492 1492 1492 1492 1491 1491 1490 1489 1489 1488 1488 1487 1486 1485 1485 1484 1483 1483 1482
1468 1469 1471 1472 1473 1474 1476 1477 1478 1479 1480 1481 1482 1483 1484 1485 1485 1486 1487 1488 1489 1489 1490 1491 1491 1491 1490 1490 1489 1489 1488 1487 1486 1486 1485 1484 1483 1482 1482 1481 1480 1480 1479
1466 1467 1469 1470 1471 1473 1474 1475 1476 1477 1478 1479 1480 1481 1482 1482 1483 1484 1485 1486 1487 1487 1488 1489 1489 1488 1488 1488 1487 1486 1486 1485 1483 1483 1482 1481 1480 1479 1479 1478 1477 1476 1475
1465 1466 1467 1469 1470 1471 1472 1473 1474 1475 1476 1477 1478 1479 1480 1480 1481 1482 1483 1485 1485 1485 1486 1486 1487 1487 1486 1486 1485 1484 1483 1482 1481 1480 1479 1478 1477 1476 1475 1474 1474 1472 1471
1464 1465 1466 1467 1468 1469 1471 1472 1473 1474 1475 1476 1477 1477 1478 1479 1480 1481 1481 1482 1483 1483 1483 1484 1485 1485 1484 1483 1482 1481 1481 1479 1478 1477 1476 1475 1474 1473 1472 1471 1470 1469 1468
1462 1462 1464 1465 1466 1468 1469 1470 1472 1473 1474 1475 1476 1476 1476 1477 1478 1479 1479 1480 1480 1481 1481 1482 1482 1482 1482 1481 1480 1479 1478 1477 1475 1474 1473 1472 1471 1470 1469 1468 1467 1466 1465
1461 1462 1463 1464 1465 1466 1468 1469 1471 1472 1473 1473 1474 1474 1474 1476 1477 1477 1477 1477 1478 1478 1478 1479 1479 1479 1478 1478 1477 1476 1475 1474 1473 1471 1470 1469 1468 1467 1466 1465 1464 1463 1461
1460 1461 1462 1463 1464 1465 1467 1468 1469 1470 1471 1472 1472 1472 1473 1474 1474 1475 1475 1475 1475 1475 1475 1475 1476 1475 1475 1474 1474 1473 1472 1471 1470 1468 1467 1466 1465 1464 1463 1462 1460 1459 1458
1460 1461 1462 1463 1464 1464 1466 1467 1468 1469 1470 1471 1471 1471 1471 1472 1472 1472 1472 1472 1472 1473 1472 1472 1472 1472 1471 1471 1470 1469 1469 1468 1466 1465 1464 1462 1461 1460 1459 1458 1457 1456 1455
1460 1461 1461 1462 1463 1464 1465 1466 1466 1467 1468 1469 1470 1470 1470 1470 1470 1470 1470 1470 1469 1469 1469 1469 1469 1468 1468 1467 1467 1466 1465 1464 1463 1461 1460 1459 1458 1457 1456 1455 1454 1453 1452
1459 1460 1461 1462 1462 1463 1463 1464 1465 1466 1466 1467 1468 1468 1468 1468 1468 1468 1467 1467 1466 1466 1466 1466 1466 1465 1464 1464 1463 1462 1461 1460 1459 1458 1456 1455 1455 1453 1452 1451 1450 1449 1449
1458 1459 1459 1460 1461 1461 1461 1462 1463 1464 1464 1465 1465 1465 1465 1465 1465 1465 1465 1464 1464 1464 1463 1463 1462 1462 1461 1460 1459 1458 1457 1455 1454 1453 1453 1452 1451 1450 1449 1448 1447 1446 1446